Home > Weather > Smara > Past weeks

Past Weather in Smara, Western Sahara — Yesterday and Last 2 Weeks

Now
68 °F

Passing clouds.


Feels Like: 68 °F
Forecast: 78 / 109 °F
Wind: 25 mph from Northeast

Location: Laayoune/Hassan Isl

Current Time: Jun 25, 2016 at 3:28:47 AM

Latest Report: Jun 25, 2016 at 3:00 AM


Visibility: 3 mi

Pressure: 29.95 "Hg

Humidity: 88%

Dew Point: 64 °F

Location of SmaraLocation

Past Weather in Smara — Graph

°F

Smara Temperature Yesterday

Maximum temperature yesterday: 97 °F (at 1:00 PM)
Minimum temperature yesterday: 68 °F (at 6:00 AM)
Average temperature yesterday: 80 °F

High & Low Weather Summary for the Past Weeks

 TemperatureHumidityPressure
High102 °F (Jun 23, 2:00 PM)100% (Jun 17, 4:00 AM)30.21 "Hg (Jun 17, 4:00 AM)
Low-69 °F (Jun 17, 4:00 AM)23% (Jun 23, 2:00 PM)29.86 "Hg (Jun 22, 5:00 PM)
Average73 °F66%30.04 "Hg
* Reported Jun 10 2:00 AM — Jun 25 2:00 AM, Smara, Weather by CustomWeather, © 2016

Note: Actual official high and low records may vary slightly from our data, if they occured in-between our weather recording intervals... More about our weather records

Advertising

Smara Weather History for the Previous 24 Hours

Scroll right to see more
 ConditionsComfort  
Time TempWeatherWind HumidityBarometerVisibility
2:00 AM
Sat, Jun 25
70 °FPassing clouds.24 mph83%29.95 "Hg3 mi
1:00 AM70 °FPassing clouds.28 mph83%29.95 "Hg3 mi
12:00 AM70 °FPassing clouds.29 mph83%29.95 "Hg3 mi
11:00 PM
Fri, Jun 24
70 °FPassing clouds.28 mph88%29.95 "Hg3 mi
10:00 PM72 °FClear.17 mph78%29.95 "Hg4 mi
9:00 PM72 °FClear.31 mph78%29.95 "Hg10 mi
8:00 PM75 °FSunny.25 mph69%29.92 "Hg10 mi
7:00 PM79 °FSunny.29 mph61%29.89 "Hg10 mi
6:00 PM84 °FSunny.23 mph48%29.89 "Hg10 mi
5:00 PM90 °FClear.28 mph41%29.89 "Hg4 mi
4:00 PM93 °FClear.25 mph34%29.89 "Hg5 mi
3:00 PM95 °FClear.24 mph32%29.89 "Hg5 mi
2:00 PM97 °FClear.23 mph37%29.92 "Hg5 mi
1:00 PM97 °FSunny.17 mph28%29.92 "Hg10 mi
12:00 PM93 °FSunny.18 mph32%29.95 "Hg10 mi
11:00 AM91 °FSunny.15 mph36%29.95 "Hg10 mi
10:00 AM84 °FClear.22 mph48%29.95 "Hg5 mi
9:00 AM77 °FClear.23 mph65%29.95 "Hg5 mi
8:00 AM72 °FClear.16 mph78%29.95 "Hg5 mi
7:00 AM68 °FClear.21 mph88%29.92 "Hg3 mi
6:00 AM68 °FClear.16 mph88%29.92 "Hg3 mi
5:00 AM70 °FClear.12 mph78%29.92 "Hg10 mi
4:00 AM70 °FClear.16 mph78%29.92 "Hg10 mi
3:00 AM72 °FClear.16 mph69%29.92 "Hg10 mi
Weather by CustomWeather, © 2016

See weather overviewHow to use our weather pages